Flag for Turkey Weather past 2 weeks in Mersin, Turkey

Now
77 °F

Passing clouds.


Feels Like: 78 °F
Forecast: 71 / 94 °F
Wind: 3 mph from Southeast

Location: Adana / Sakirpasa

Current Time: Aug 1, 2014 at 12:13:23 AM

Latest Report: Jul 31, 2014 at 11:50 PM


Visibility: N/A

Pressure: 29.71 "Hg

Humidity: 89%

Dew point: 73 °F

Location of MersinLocation

Historic Weather in Mersin — Graph

°F

Mersin temperature yesterday

Maximum temperature yesterday: 91 °F (at 12:20 PM)
Minimum temperature yesterday: 79 °F (at 12:20 AM)
Average temperature yesterday: 84 °F

Past Weeks' High & Low Weather Summary

 TemperatureHumidityPressure
High91 °F (Jul 21, 12:50 PM)94% (Jul 17, 4:50 AM)29.86 "Hg (Jul 17, 4:50 AM)
Low73 °F (Jul 17, 3:50 AM)38% (Jul 17, 1:50 PM)29.59 "Hg (Jul 20, 12:20 PM)
Average82 °F72%29.71 "Hg
* Reported Jul 16 10:20 PM — Jul 31 10:50 PM, Mersin, Weather by CustomWeather, © 2014

Note: Actual official high and low records may vary slightly from our data, if they occured in-between our weather recording intervals... More about our weather records

Advertising

Mersin weather history for previous 24 hours

 ConditionsComfort  
Time TempWeatherWind HumidityBarometerVisibility
10:50 PM
Jul 31
79 °FPassing clouds.5 mph84%29.71 "HgN/A
10:20 PM79 °FPassing clouds.5 mph84%29.71 "HgN/A
9:50 PM79 °FPassing clouds.3 mph84%29.71 "HgN/A
9:20 PM79 °FPassing clouds.3 mph84%29.71 "HgN/A
8:50 PM81 °FPassing clouds.3 mph74%29.71 "HgN/A
8:20 PM81 °FScattered clouds.5 mph74%29.68 "HgN/A
7:50 PM82 °FScattered clouds.7 mph70%29.68 "HgN/A
7:20 PM82 °FScattered clouds.9 mph70%29.68 "HgN/A
6:50 PM84 °FScattered clouds.10 mph66%29.68 "HgN/A
6:20 PM86 °FScattered clouds.12 mph62%29.68 "HgN/A
5:50 PM88 °FScattered clouds.10 mph52%29.68 "HgN/A
5:20 PM88 °FScattered clouds.13 mph52%29.68 "HgN/A
4:50 PM90 °FScattered clouds.14 mph52%29.68 "HgN/A
4:20 PM91 °FScattered clouds.14 mph46%29.65 "HgN/A
3:50 PM91 °FScattered clouds.9 mph46%29.68 "HgN/A
3:20 PM91 °FScattered clouds.9 mph49%29.68 "HgN/A
2:50 PM91 °FScattered clouds.10 mph49%29.68 "HgN/A
2:20 PM91 °FScattered clouds.10 mph52%29.68 "HgN/A
1:50 PM91 °FScattered clouds.12 mph49%29.68 "HgN/A
1:20 PM90 °FScattered clouds.9 mph55%29.68 "HgN/A
12:50 PM91 °FBroken clouds.9 mph52%29.71 "HgN/A
12:20 PM91 °FBroken clouds.9 mph56%29.71 "HgN/A
11:50 AM90 °FBroken clouds.8 mph55%29.71 "HgN/A
11:20 AM90 °FBroken clouds.8 mph59%29.71 "HgN/A
10:50 AM88 °FBroken clouds.7 mph62%29.71 "HgN/A
10:20 AM86 °FBroken clouds.6 mph70%29.71 "HgN/A
9:50 AM86 °FBroken clouds.7 mph70%29.71 "HgN/A
9:20 AM84 °FBroken clouds.5 mph74%29.71 "HgN/A
8:50 AM84 °FScattered clouds.3 mph74%29.71 "HgN/A
8:20 AM82 °FScattered clouds.3 mph79%29.71 "HgN/A
7:50 AM82 °FPassing clouds.3 mph84%29.71 "HgN/A
7:20 AM81 °FPassing clouds.3 mph84%29.71 "HgN/A
6:50 AM79 °FPartly sunny.1 mph89%29.71 "HgN/A
6:20 AM79 °FPassing clouds.No wind89%29.71 "HgN/A
5:50 AM79 °FPassing clouds.2 mph89%29.71 "HgN/A
5:20 AM79 °FPassing clouds.No wind89%29.71 "HgN/A
4:50 AM79 °FPassing clouds.No wind89%29.71 "HgN/A
4:20 AM79 °FPassing clouds.3 mph89%29.68 "HgN/A
3:50 AM79 °FPassing clouds.3 mph89%29.68 "HgN/A
3:20 AM79 °FPassing clouds.3 mph89%29.68 "HgN/A
2:50 AM79 °FPassing clouds.3 mph89%29.71 "HgN/A
2:20 AM79 °FPassing clouds.3 mph89%29.71 "HgN/A
1:50 AM79 °FPassing clouds.5 mph89%29.71 "HgN/A
1:20 AM81 °FPassing clouds.3 mph84%29.71 "HgN/A
12:50 AM79 °FPassing clouds.2 mph89%29.71 "HgN/A
12:20 AM79 °FPassing clouds.3 mph89%29.71 "HgN/A
Weather by CustomWeather, © 2014

See weather overviewHow to use our weather pages